�������l�o���
Date,Time,MP-1(��Sv/h),MP-2(��Sv/h),MP-3(��Sv/h),MP-4(��Sv/h),MP-5(��Sv/h),MP-6(��Sv/h),MP-7(��Sv/h),MP-8(��Sv/h),����,����(m/s),���J
2024/02/13,00:00,0.507,0.770,0.481,0.962,0.692,0.308,0.552,0.518,���k��,2.8,��
2024/02/13,00:10,0.505,0.769,0.481,0.963,0.692,0.309,0.552,0.518,��,2.3,��
2024/02/13,00:20,0.506,0.769,0.482,0.962,0.691,0.309,0.552,0.520,���쐼,1.5,��
2024/02/13,00:30,0.507,0.769,0.480,0.963,0.691,0.309,0.552,0.518,���쐼,1.5,��
2024/02/13,00:40,0.506,0.769,0.481,0.962,0.693,0.308,0.553,0.519,�쐼,1.1,��
2024/02/13,00:50,0.506,0.770,0.483,0.964,0.691,0.308,0.553,0.519,��쓌,0.6,��
2024/02/13,01:00,0.505,0.771,0.480,0.962,0.693,0.309,0.551,0.519,��쓌,0.6,��
2024/02/13,01:10,0.507,0.767,0.482,0.961,0.691,0.309,0.553,0.518,-,CALM,��
2024/02/13,01:20,0.506,0.769,0.482,0.963,0.692,0.310,0.551,0.519,-,CALM,��
2024/02/13,01:30,0.507,0.770,0.480,0.964,0.692,0.309,0.553,0.518,���k��,0.6,��
2024/02/13,01:40,0.505,0.769,0.482,0.961,0.690,0.309,0.552,0.519,�쓌,1.2,��
2024/02/13,01:50,0.506,0.768,0.482,0.964,0.692,0.310,0.552,0.518,�쓌,2.0,��
2024/02/13,02:00,0.504,0.768,0.480,0.963,0.692,0.310,0.552,0.519,��쓌,1.4,��
2024/02/13,02:10,0.507,0.768,0.481,0.961,0.689,0.308,0.552,0.519,��,2.8,��
2024/02/13,02:20,0.507,0.769,0.482,0.963,0.691,0.308,0.551,0.518,��,2.8,��
2024/02/13,02:30,0.506,0.768,0.482,0.963,0.690,0.309,0.552,0.518,��쐼,3.7,��
2024/02/13,02:40,0.506,0.768,0.480,0.962,0.690,0.309,0.553,0.518,��쐼,4.4,��
2024/02/13,02:50,0.506,0.768,0.481,0.962,0.691,0.308,0.552,0.519,��쐼,5.6,��
2024/02/13,03:00,0.506,0.768,0.482,0.964,0.691,0.309,0.553,0.519,��쐼,5.6,��
2024/02/13,03:10,0.505,0.769,0.481,0.961,0.692,0.310,0.551,0.518,��쐼,5.3,��
2024/02/13,03:20,0.504,0.769,0.481,0.962,0.691,0.310,0.553,0.519,��쐼,5.8,��
2024/02/13,03:30,0.506,0.768,0.481,0.962,0.692,0.309,0.554,0.518,�쐼,5.8,��
2024/02/13,03:40,0.507,0.769,0.479,0.963,0.692,0.308,0.552,0.518,�쐼,5.5,��
2024/02/13,03:50,0.505,0.770,0.480,0.964,0.690,0.308,0.552,0.519,��쐼,5.2,��
2024/02/13,04:00,0.505,0.769,0.480,0.963,0.692,0.308,0.553,0.520,��쐼,5.2,��
2024/02/13,04:10,0.504,0.768,0.481,0.963,0.691,0.309,0.552,0.518,��쐼,5.7,��
2024/02/13,04:20,0.507,0.767,0.481,0.962,0.690,0.308,0.554,0.519,��,5.6,��
2024/02/13,04:30,0.506,0.767,0.481,0.960,0.690,0.309,0.553,0.519,��쐼,5.1,��
2024/02/13,04:40,0.507,0.768,0.480,0.964,0.691,0.309,0.553,0.519,��쐼,4.8,��
2024/02/13,04:50,0.507,0.767,0.480,0.964,0.690,0.309,0.552,0.518,��쐼,4.7,��
2024/02/13,05:00,0.505,0.766,0.482,0.962,0.691,0.310,0.554,0.519,��쐼,4.8,��
2024/02/13,05:10,0.507,0.767,0.481,0.961,0.689,0.309,0.553,0.518,��쐼,4.6,��
2024/02/13,05:20,0.507,0.769,0.481,0.963,0.690,0.309,0.552,0.519,��쐼,5.0,��
2024/02/13,05:30,0.507,0.769,0.481,0.961,0.692,0.309,0.554,0.519,��쐼,5.7,��
2024/02/13,05:40,0.505,0.767,0.480,0.962,0.691,0.309,0.553,0.518,��쐼,4.8,��
2024/02/13,05:50,0.507,0.767,0.480,0.961,0.691,0.308,0.552,0.520,��쐼,4.5,��
2024/02/13,06:00,0.506,0.769,0.481,0.961,0.690,0.308,0.552,0.519,��쐼,4.3,��
2024/02/13,06:10,0.506,0.768,0.479,0.962,0.689,0.308,0.554,0.519,��쐼,4.1,��
2024/02/13,06:20,0.507,0.768,0.483,0.961,0.690,0.309,0.553,0.518,��쐼,3.6,��
2024/02/13,06:30,0.507,0.768,0.481,0.963,0.691,0.309,0.552,0.519,��쐼,3.2,��
2024/02/13,06:40,0.506,0.768,0.480,0.961,0.693,0.309,0.552,0.520,��쐼,2.9,��
2024/02/13,06:50,0.507,0.766,0.482,0.961,0.691,0.308,0.551,0.520,�쐼,2.2,��
2024/02/13,07:00,0.506,0.767,0.481,0.962,0.689,0.310,0.553,0.519,�쐼,2.6,��
2024/02/13,07:10,0.507,0.767,0.480,0.963,0.690,0.308,0.550,0.519,�쐼,1.9,��
2024/02/13,07:20,0.505,0.767,0.480,0.962,0.691,0.309,0.553,0.518,�쐼,2.0,��
2024/02/13,07:30,0.505,0.768,0.481,0.961,0.691,0.309,0.552,0.520,��쐼,1.5,��
2024/02/13,07:40,0.507,0.769,0.480,0.960,0.689,0.308,0.553,0.519,��쓌,1.5,��
2024/02/13,07:50,0.507,0.769,0.481,0.962,0.690,0.309,0.554,0.519,��쓌,0.9,��
2024/02/13,08:00,0.507,0.768,0.480,0.962,0.690,0.309,0.554,0.517,��쓌,1.2,��
2024/02/13,08:10,0.506,0.770,0.481,0.964,0.689,0.308,0.554,0.520,��쓌,0.9,��
2024/02/13,08:20,0.508,0.769,0.482,0.963,0.691,0.308,0.554,0.520,��쓌,0.6,��
2024/02/13,08:30,0.507,0.768,0.480,0.962,0.692,0.308,0.555,0.520,��쓌,0.8,��
2024/02/13,08:40,0.506,0.769,0.481,0.963,0.690,0.309,0.555,0.519,�쓌,0.6,��
2024/02/13,08:50,0.509,0.770,0.482,0.964,0.689,0.309,0.554,0.519,-,CALM,��
2024/02/13,09:00,0.508,0.770,0.483,0.963,0.691,0.309,0.553,0.520,-,CALM,��
2024/02/13,09:10,0.508,0.768,0.482,0.964,0.690,0.309,0.554,0.520,-,CALM,��
2024/02/13,09:20,0.507,0.770,0.482,0.964,0.693,0.309,0.556,0.519,���쓌,1.1,��
2024/02/13,09:30,0.507,0.771,0.482,0.964,0.692,0.310,0.555,0.519,��,1.4,��
2024/02/13,09:40,0.509,0.769,0.483,0.962,0.690,0.310,0.554,0.520,��,0.6,��
2024/02/13,09:50,0.507,0.769,0.482,0.963,0.692,0.311,0.554,0.519,��,1.2,��
2024/02/13,10:00,0.508,0.769,0.485,0.963,0.692,0.310,0.552,0.521,��쓌,1.2,��
2024/02/13,10:10,0.508,0.767,0.484,0.962,0.692,0.311,0.553,0.520,��쓌,2.6,��
2024/02/13,10:20,0.508,0.769,0.484,0.963,0.693,0.311,0.554,0.520,��쓌,1.9,��
2024/02/13,10:30,0.509,0.767,0.483,0.965,0.694,0.311,0.554,0.520,�쓌,1.2,��
2024/02/13,10:40,0.509,0.768,0.484,0.962,0.694,0.308,0.554,0.521,��,1.2,��
2024/02/13,10:50,0.508,0.769,0.483,0.965,0.694,0.310,0.553,0.522,��쓌,1.4,��
2024/02/13,11:00,0.509,0.769,0.484,0.965,0.692,0.310,0.555,0.520,��쓌,1.9,��
2024/02/13,11:10,0.510,0.767,0.484,0.964,0.692,0.311,0.554,0.522,��쓌,3.4,��
2024/02/13,11:20,0.509,0.769,0.484,0.967,0.694,0.310,0.553,0.520,�쓌,3.4,��
2024/02/13,11:30,0.506,0.768,0.484,0.966,0.692,0.310,0.554,0.522,�쓌,5.1,��
2024/02/13,11:40,0.507,0.770,0.483,0.962,0.687,0.310,0.555,0.522,��쓌,4.9,��
2024/02/13,11:50,0.508,0.771,0.483,0.963,0.693,0.309,0.556,0.521,��쓌,4.9,��
2024/02/13,12:00,0.509,0.771,0.485,0.966,0.695,0.309,0.556,0.522,��쓌,4.3,��
2024/02/13,12:10,0.508,0.768,0.484,0.967,0.692,0.310,0.556,0.522,��쓌,4.5,��
2024/02/13,12:20,0.508,0.768,0.485,0.963,0.694,0.310,0.554,0.522,��쓌,5.2,��
2024/02/13,12:30,0.508,0.770,0.485,0.966,0.693,0.311,0.556,0.520,��쓌,4.5,��
2024/02/13,12:40,0.510,0.771,0.485,0.965,0.695,0.312,0.556,0.521,��,3.5,��
2024/02/13,12:50,0.508,0.771,0.485,0.965,0.694,0.312,0.555,0.521,��,3.2,��
2024/02/13,13:00,0.509,0.766,0.485,0.968,0.693,0.313,0.555,0.522,��,4.3,��
2024/02/13,13:10,0.509,0.768,0.484,0.965,0.692,0.312,0.557,0.520,��,4.2,��
2024/02/13,13:20,0.508,0.770,0.483,0.965,0.694,0.312,0.557,0.519,��쓌,4.0,��
2024/02/13,13:30,0.509,0.772,0.484,0.968,0.693,0.311,0.554,0.519,��쓌,4.4,��
2024/02/13,13:40,0.509,0.770,0.483,0.965,0.693,0.312,0.556,0.518,��쓌,4.0,��
2024/02/13,13:50,0.508,0.773,0.483,0.964,0.694,0.311,0.555,0.519,��,3.2,��
2024/02/13,14:00,0.508,0.771,0.483,0.964,0.694,0.311,0.555,0.520,��쐼,2.3,��
2024/02/13,14:10,0.510,0.771,0.484,0.966,0.696,0.310,0.556,0.519,���쐼,1.1,��
2024/02/13,14:20,0.509,0.771,0.484,0.967,0.694,0.311,0.556,0.520,��쓌,3.8,��
2024/02/13,14:30,0.509,0.770,0.484,0.966,0.694,0.310,0.556,0.519,��쓌,3.1,��
2024/02/13,14:40,0.509,0.770,0.483,0.967,0.695,0.310,0.555,0.519,��쐼,3.2,��
2024/02/13,14:50,0.508,0.770,0.486,0.966,0.695,0.311,0.556,0.519,�쐼,1.7,��
2024/02/13,15:00,0.508,0.770,0.484,0.966,0.695,0.311,0.556,0.520,��,4.4,��
2024/02/13,15:10,0.507,0.772,0.484,0.966,0.696,0.310,0.557,0.519,��,7.7,��
2024/02/13,15:20,0.508,0.771,0.484,0.967,0.695,0.309,0.555,0.519,���k��,7.5,��
2024/02/13,15:30,0.508,0.770,0.484,0.965,0.696,0.309,0.554,0.518,���k��,8.4,��
2024/02/13,15:40,0.508,0.768,0.483,0.965,0.695,0.311,0.556,0.520,���k��,6.1,��
2024/02/13,15:50,0.508,0.769,0.484,0.966,0.695,0.311,0.555,0.518,���k��,5.9,��
2024/02/13,16:00,0.510,0.769,0.483,0.966,0.696,0.311,0.556,0.519,��,7.2,��
2024/02/13,16:10,0.509,0.770,0.485,0.964,0.694,0.312,0.556,0.522,��,8.7,��
2024/02/13,16:20,0.508,0.770,0.485,0.964,0.697,0.312,0.555,0.520,���k��,8.0,��
2024/02/13,16:30,0.508,0.775,0.486,0.966,0.695,0.312,0.556,0.522,��,9.3,��
2024/02/13,16:40,0.510,0.770,0.484,0.965,0.695,0.313,0.556,0.521,��,8.3,��
2024/02/13,16:50,0.509,0.772,0.484,0.968,0.695,0.312,0.557,0.520,��,9.7,��
2024/02/13,17:00,0.509,0.771,0.485,0.967,0.695,0.311,0.556,0.522,���쐼,9.0,��
2024/02/13,17:10,0.511,0.772,0.485,0.968,0.696,0.312,0.554,0.522,���쐼,7.9,��
2024/02/13,17:20,0.509,0.776,0.486,0.969,0.696,0.313,0.555,0.522,���쐼,8.0,��
2024/02/13,17:30,0.508,0.775,0.485,0.971,0.695,0.313,0.557,0.523,���쐼,6.3,��
2024/02/13,17:40,0.511,0.774,0.485,0.967,0.697,0.312,0.557,0.523,���쐼,4.6,��
2024/02/13,17:50,0.511,0.775,0.487,0.966,0.698,0.312,0.557,0.522,�쐼,3.3,��
2024/02/13,18:00,0.512,0.774,0.485,0.968,0.696,0.312,0.556,0.523,�쐼,2.9,��
2024/02/13,18:10,0.512,0.772,0.484,0.970,0.696,0.312,0.557,0.520,�쐼,3.2,��
2024/02/13,18:20,0.511,0.774,0.485,0.969,0.697,0.312,0.558,0.522,�쐼,3.3,��
2024/02/13,18:30,0.512,0.773,0.484,0.968,0.698,0.313,0.557,0.522,�쐼,3.6,��
2024/02/13,18:40,0.511,0.775,0.485,0.967,0.697,0.312,0.557,0.520,��쐼,1.9,��
2024/02/13,18:50,0.512,0.773,0.487,0.969,0.696,0.312,0.557,0.522,�쐼,2.0,��
2024/02/13,19:00,0.511,0.773,0.484,0.968,0.698,0.312,0.558,0.522,�쐼,2.8,��
2024/02/13,19:10,0.509,0.774,0.485,0.968,0.698,0.313,0.558,0.522,�쐼,2.3,��
2024/02/13,19:20,0.512,0.773,0.484,0.968,0.697,0.313,0.554,0.520,���쐼,2.2,��
2024/02/13,19:30,0.509,0.774,0.485,0.968,0.695,0.312,0.558,0.522,���k��,0.6,��
2024/02/13,19:40,0.512,0.772,0.485,0.967,0.697,0.310,0.558,0.522,���k��,1.5,��
2024/02/13,19:50,0.510,0.773,0.487,0.970,0.696,0.312,0.557,0.522,�k��,1.9,��
2024/02/13,20:00,0.512,0.773,0.485,0.968,0.697,0.310,0.557,0.521,�k�k��,3.0,��
2024/02/13,20:10,0.511,0.772,0.484,0.970,0.697,0.311,0.557,0.522,�k��,3.8,��
2024/02/13,20:20,0.510,0.774,0.486,0.968,0.698,0.312,0.555,0.521,�k�k��,3.0,��
2024/02/13,20:30,0.509,0.774,0.484,0.969,0.697,0.310,0.556,0.521,�k�k��,3.3,��
2024/02/13,20:40,0.509,0.773,0.485,0.970,0.697,0.312,0.555,0.522,�k�k��,4.5,��
2024/02/13,20:50,0.511,0.773,0.486,0.970,0.695,0.311,0.557,0.521,�k�k��,4.2,��
2024/02/13,21:00,0.511,0.772,0.486,0.968,0.697,0.310,0.557,0.520,�k��,5.0,��
2024/02/13,21:10,0.512,0.774,0.487,0.969,0.698,0.310,0.556,0.522,�k��,3.0,��
2024/02/13,21:20,0.512,0.773,0.486,0.968,0.700,0.312,0.556,0.521,���k��,1.8,��
2024/02/13,21:30,0.511,0.772,0.487,0.968,0.697,0.312,0.555,0.520,���쐼,1.1,��
2024/02/13,21:40,0.511,0.772,0.484,0.967,0.697,0.311,0.556,0.520,��쓌,0.8,��
2024/02/13,21:50,0.511,0.771,0.484,0.970,0.696,0.312,0.554,0.520,��쓌,1.4,��
2024/02/13,22:00,0.511,0.772,0.485,0.968,0.696,0.311,0.555,0.522,��쓌,2.0,��
2024/02/13,22:10,0.510,0.773,0.485,0.967,0.697,0.311,0.555,0.520,���쓌,1.7,��
2024/02/13,22:20,0.510,0.774,0.485,0.968,0.697,0.312,0.554,0.521,��쓌,2.0,��
2024/02/13,22:30,0.510,0.774,0.485,0.967,0.698,0.311,0.556,0.519,��쓌,2.3,��
2024/02/13,22:40,0.510,0.774,0.484,0.969,0.696,0.311,0.555,0.521,��,1.5,��
2024/02/13,22:50,0.509,0.773,0.484,0.968,0.697,0.312,0.555,0.520,��,2.6,��
2024/02/13,23:00,0.511,0.772,0.485,0.969,0.696,0.312,0.555,0.520,��쐼,2.0,��
2024/02/13,23:10,0.510,0.773,0.484,0.970,0.695,0.311,0.553,0.521,�쐼,3.8,��
2024/02/13,23:20,0.512,0.775,0.484,0.968,0.696,0.312,0.555,0.521,���쐼,4.2,��
2024/02/13,23:30,0.509,0.775,0.484,0.969,0.695,0.311,0.557,0.521,���쐼,7.4,��
2024/02/13,23:40,0.511,0.773,0.485,0.969,0.696,0.312,0.557,0.521,���쐼,5.9,��
2024/02/13,23:50,0.510,0.774,0.484,0.970,0.696,0.311,0.555,0.522,���k��,2.5,��
